Weather in Novopetrivka

Ukraine / Zaporizhia Region     46°49′29″N   36°53′32″E
temp.,
°C
wind,
m/s
gust,
m/s
humid.,
%
clouds,
%
prec.,
mm/h
press.,
hPa
HPBL,
m
5 march, fri
fri523:00+5sw10158167 0.0 1016447
02:00+5sw10158633 0.0 1016434
05:00+5sw9158120 0.0 1015448
08:00+5sw9138258 0.0 1014410
11:00+6sw81283100 0.0 1015358
14:00+6sw6108166 0.0 1014294
17:00+6ssw698392 0.0 1013176
20:00+6ssw8148796 0.0 1014248
6 march, sat
sat623:00+6sw81290100 0.0 1013209
02:00+6sw81390100 0.0 1012239
05:00+5sw81293100 0.0 1011261
08:00+5w7989100 0.0 1012249
11:00+4nnw91276100 0.0 1015562
14:00+4nnw91168100 0.0 1017964
17:00+3nnw81058100 0.0 10201337
20:00+1nnw9125683 0.0 1024944
7 march, sun
sun723:000nnw710590 0.0 1026936
02:000wnw68600 0.0 1027717
05:000wnw69610 0.0 1027505
08:000wnw68570 0.0 1027572
11:00+2wsw810530 0.0 10261558
14:00+3wsw11125810 0.0 10241545
17:00+3wsw11136016 0.0 1022991
20:00+3wsw9126219 0.0 1021871
8 march, mon
mon823:00+2wsw1013630 0.0 1020805
02:00+3wsw1015700 0.0 1019955
05:00+3wsw11157360 0.0 1018907
08:00+4wsw11157379 0.0 1018958
11:00+5wsw12147397 0.0 1017947
14:00+5sw11147356 0.0 1016769
17:00+5wsw10157720 0.0 1016531
20:00+5wsw9137658 0.0 1016413
9 march, tue
tue923:00+4wsw81280100 0.1 1016450
02:00+3w61081100 0.3 1015399
05:00+3wsw568317 0.1 1015291
08:00+4wsw798420 0.2 1015502
11:00+5wsw78689 0.2 1016639
14:00+5wnw687038 0.5 1016648
17:00+4nnw455993 0.0 1016742
20:00+2n466159 0.0 1018312